Wetterdaten: Woche 09.02.15 - 15.02.15 (KW7)
Datum Zeit Temp. Aussen +5cm Feuchte Auss Luftdruck Regen Sonnenschein Regendauer Solar Windben
09.02.2015 00:00 2,7 C 1,7 C 92 % 1031,1 hPa 0,0 l/m 0,00 h 0,20 h 0 W/m 12,3 km/h (3 Bft)
09.02.2015 01:00 2,9 C 1,7 C 93 % 1030,6 hPa 0,0 l/m 0,00 h 0,00 h 0 W/m 12,8 km/h (3 Bft)
09.02.2015 02:00 3,0 C 1,7 C 94 % 1030,1 hPa 0,0 l/m 0,00 h 0,00 h 0 W/m 11,3 km/h (2 Bft)
09.02.2015 03:00 3,3 C 2,3 C 95 % 1029,8 hPa 0,0 l/m 0,00 h 0,00 h 0 W/m 13,0 km/h (3 Bft)
09.02.2015 04:00 3,7 C 2,3 C 95 % 1028,9 hPa 0,0 l/m 0,00 h 0,00 h 0 W/m 15,9 km/h (3 Bft)
09.02.2015 05:00 3,7 C 2,6 C 94 % 1028,9 hPa 0,0 l/m 0,00 h 0,00 h 0 W/m 14,5 km/h (3 Bft)
09.02.2015 06:00 3,7 C 2,4 C 94 % 1029,0 hPa 0,0 l/m 0,00 h 0,00 h 0 W/m 16,9 km/h (3 Bft)
09.02.2015 07:00 3,7 C 2,2 C 94 % 1029,0 hPa 0,0 l/m 0,00 h 0,00 h 0 W/m 16,4 km/h (3 Bft)
09.02.2015 08:00 3,6 C 2,3 C 95 % 1029,5 hPa 0,0 l/m 0,00 h 0,00 h 12 W/m 14,9 km/h (3 Bft)
09.02.2015 09:00 3,7 C 2,8 C 95 % 1029,5 hPa 0,0 l/m 0,00 h 0,00 h 38 W/m 18,1 km/h (3 Bft)
09.02.2015 10:00 4,1 C 3,6 C 96 % 1029,2 hPa 0,0 l/m 0,00 h 0,00 h 78 W/m 17,1 km/h (3 Bft)
09.02.2015 11:00 4,6 C 4,1 C 96 % 1029,4 hPa 0,0 l/m 0,00 h 0,00 h 77 W/m 18,0 km/h (3 Bft)
09.02.2015 12:00 4,9 C 4,2 C 96 % 1029,2 hPa 0,0 l/m 0,00 h 0,00 h 62 W/m 15,4 km/h (3 Bft)
09.02.2015 13:00 5,4 C 5,0 C 96 % 1028,4 hPa 0,0 l/m 0,00 h 0,00 h 99 W/m 17,6 km/h (3 Bft)
09.02.2015 14:00 6,0 C 5,2 C 94 % 1028,2 hPa 0,0 l/m 0,00 h 0,00 h 71 W/m 20,1 km/h (4 Bft)
09.02.2015 15:00 5,9 C 4,4 C 94 % 1028,3 hPa 0,0 l/m 0,00 h 0,03 h 39 W/m 16,9 km/h (3 Bft)
09.02.2015 16:00 5,8 C 4,4 C 94 % 1028,6 hPa 0,0 l/m 0,00 h 0,00 h 28 W/m 16,2 km/h (3 Bft)
09.02.2015 17:00 5,7 C 4,1 C 94 % 1028,9 hPa 0,0 l/m 0,00 h 0,07 h 8 W/m 12,7 km/h (3 Bft)
09.02.2015 18:00 5,4 C 3,6 C 94 % 1029,2 hPa 0,2 l/m 0,00 h 0,53 h 0 W/m 10,6 km/h (2 Bft)
09.02.2015 19:00 5,2 C 3,4 C 95 % 1029,2 hPa 0,0 l/m 0,00 h 0,07 h 0 W/m 13,7 km/h (3 Bft)
09.02.2015 20:00 5,1 C 3,3 C 96 % 1029,7 hPa 0,0 l/m 0,00 h 0,40 h 0 W/m 13,7 km/h (3 Bft)
09.02.2015 21:00 4,9 C 3,3 C 96 % 1030,0 hPa 0,0 l/m 0,00 h 0,23 h 0 W/m 12,6 km/h (3 Bft)
09.02.2015 22:00 4,9 C 3,3 C 97 % 1030,0 hPa 0,2 l/m 0,00 h 0,03 h 0 W/m 12,2 km/h (2 Bft)
09.02.2015 23:00 4,8 C 3,3 C 97 % 1030,0 hPa 0,0 l/m 0,00 h 0,00 h 0 W/m 9,5 km/h (2 Bft)
10.02.2015 00:00 4,8 C 3,3 C 97 % 1030,1 hPa 0,0 l/m 0,00 h 0,23 h 0 W/m 11,4 km/h (2 Bft)
10.02.2015 01:00 4,7 C 3,3 C 97 % 1030,0 hPa 0,2 l/m 0,00 h 0,03 h 0 W/m 11,7 km/h (2 Bft)
10.02.2015 02:00 4,7 C 3,3 C 98 % 1030,1 hPa 0,0 l/m 0,00 h 0,60 h 0 W/m 11,2 km/h (2 Bft)
10.02.2015 03:00 4,7 C 3,3 C 98 % 1030,1 hPa 0,0 l/m 0,00 h 0,07 h 0 W/m 9,7 km/h (2 Bft)
10.02.2015 04:00 4,7 C 3,2 C 98 % 1030,3 hPa 0,2 l/m 0,00 h 0,03 h 0 W/m 10,3 km/h (2 Bft)
10.02.2015 05:00 4,6 C 3,3 C 98 % 1030,4 hPa 0,0 l/m 0,00 h 0,10 h 0 W/m 9,2 km/h (2 Bft)
10.02.2015 06:00 4,6 C 3,3 C 98 % 1030,5 hPa 0,0 l/m 0,00 h 0,03 h 0 W/m 9,9 km/h (2 Bft)
10.02.2015 07:00 4,5 C 3,2 C 98 % 1030,6 hPa 0,0 l/m 0,00 h 0,13 h 0 W/m 7,6 km/h (2 Bft)
10.02.2015 08:00 4,4 C 3,3 C 98 % 1031,0 hPa 0,2 l/m 0,00 h 0,13 h 18 W/m 7,9 km/h (2 Bft)
10.02.2015 09:00 4,7 C 3,8 C 98 % 1031,3 hPa 0,0 l/m 0,00 h 0,20 h 47 W/m 6,9 km/h (2 Bft)
10.02.2015 10:00 5,0 C 4,3 C 98 % 1031,6 hPa 0,0 l/m 0,00 h 0,47 h 83 W/m 10,8 km/h (2 Bft)
10.02.2015 11:00 5,2 C 4,4 C 98 % 1031,7 hPa 0,0 l/m 0,13 h 0,13 h 120 W/m 9,2 km/h (2 Bft)
10.02.2015 12:00 5,4 C 4,5 C 98 % 1031,4 hPa 0,0 l/m 0,00 h 0,00 h 77 W/m 11,5 km/h (2 Bft)
10.02.2015 13:00 5,5 C 4,5 C 97 % 1031,2 hPa 0,0 l/m 0,00 h 0,00 h 70 W/m 9,2 km/h (2 Bft)
10.02.2015 14:00 5,8 C 4,5 C 95 % 1030,8 hPa 0,0 l/m 0,00 h 0,00 h 62 W/m 7,7 km/h (2 Bft)
10.02.2015 15:00 5,9 C 4,5 C 94 % 1030,7 hPa 0,0 l/m 0,00 h 0,00 h 54 W/m 9,7 km/h (2 Bft)
10.02.2015 16:00 5,9 C 4,4 C 93 % 1030,6 hPa 0,0 l/m 0,00 h 0,00 h 25 W/m 7,3 km/h (2 Bft)
10.02.2015 17:00 5,6 C 3,9 C 94 % 1030,4 hPa 0,0 l/m 0,00 h 0,00 h 6 W/m 6,5 km/h (2 Bft)
10.02.2015 18:00 5,4 C 3,9 C 95 % 1030,6 hPa 0,0 l/m 0,00 h 0,00 h 0 W/m 4,6 km/h (1 Bft)
10.02.2015 19:00 5,2 C 3,9 C 95 % 1030,7 hPa 0,0 l/m 0,00 h 0,00 h 0 W/m 4,6 km/h (1 Bft)
10.02.2015 20:00 5,2 C 3,9 C 96 % 1030,5 hPa 0,0 l/m 0,00 h 0,00 h 0 W/m 6,3 km/h (2 Bft)
10.02.2015 21:00 5,1 C 3,4 C 96 % 1030,3 hPa 0,0 l/m 0,00 h 0,00 h 0 W/m 3,7 km/h (1 Bft)
10.02.2015 22:00 4,9 C 3,3 C 96 % 1029,9 hPa 0,0 l/m 0,00 h 0,00 h 0 W/m 6,2 km/h (2 Bft)
10.02.2015 23:00 4,9 C 3,3 C 96 % 1029,4 hPa 0,0 l/m 0,00 h 0,00 h 0 W/m 6,9 km/h (2 Bft)
11.02.2015 00:00 5,0 C 3,4 C 96 % 1029,1 hPa 0,0 l/m 0,00 h 0,00 h 0 W/m 8,2 km/h (2 Bft)
11.02.2015 01:00 5,0 C 3,3 C 95 % 1028,6 hPa 0,0 l/m 0,00 h 0,00 h 0 W/m 7,2 km/h (2 Bft)
11.02.2015 02:00 4,7 C 3,2 C 94 % 1028,0 hPa 0,0 l/m 0,00 h 0,00 h 0 W/m 12,7 km/h (3 Bft)
11.02.2015 03:00 4,4 C 2,8 C 90 % 1027,8 hPa 0,0 l/m 0,00 h 0,00 h 0 W/m 14,7 km/h (3 Bft)
11.02.2015 04:00 4,2 C 2,8 C 89 % 1027,3 hPa 0,0 l/m 0,00 h 0,00 h 0 W/m 14,8 km/h (3 Bft)
11.02.2015 05:00 3,9 C 2,8 C 88 % 1027,3 hPa 0,0 l/m 0,00 h 0,00 h 0 W/m 14,4 km/h (3 Bft)
11.02.2015 06:00 3,7 C 2,2 C 88 % 1027,0 hPa 0,0 l/m 0,00 h 0,00 h 0 W/m 16,5 km/h (3 Bft)
11.02.2015 07:00 3,6 C 2,2 C 88 % 1026,8 hPa 0,0 l/m 0,00 h 0,00 h 0 W/m 14,2 km/h (3 Bft)
11.02.2015 08:00 3,6 C 2,5 C 88 % 1026,8 hPa 0,0 l/m 0,00 h 0,00 h 12 W/m 13,3 km/h (3 Bft)
11.02.2015 09:00 3,7 C 3,0 C 88 % 1026,6 hPa 0,0 l/m 0,00 h 0,00 h 42 W/m 16,5 km/h (3 Bft)
11.02.2015 10:00 4,1 C 3,5 C 88 % 1026,4 hPa 0,0 l/m 0,00 h 0,00 h 77 W/m 15,7 km/h (3 Bft)
11.02.2015 11:00 4,4 C 4,2 C 87 % 1026,2 hPa 0,0 l/m 0,00 h 0,00 h 107 W/m 15,5 km/h (3 Bft)
11.02.2015 12:00 4,7 C 4,4 C 86 % 1025,7 hPa 0,0 l/m 0,00 h 0,00 h 129 W/m 17,4 km/h (3 Bft)
11.02.2015 13:00 4,9 C 5,0 C 85 % 1024,9 hPa 0,0 l/m 0,00 h 0,00 h 166 W/m 16,1 km/h (3 Bft)
11.02.2015 14:00 5,3 C 4,9 C 84 % 1024,2 hPa 0,0 l/m 0,60 h 0,00 h 189 W/m 15,3 km/h (3 Bft)
11.02.2015 15:00 6,4 C 4,9 C 81 % 1023,7 hPa 0,0 l/m 1,00 h 0,00 h 205 W/m 14,5 km/h (3 Bft)
11.02.2015 16:00 6,2 C 3,9 C 79 % 1023,1 hPa 0,0 l/m 0,50 h 0,00 h 79 W/m 16,2 km/h (3 Bft)
11.02.2015 17:00 5,0 C 2,8 C 82 % 1022,9 hPa 0,0 l/m 0,07 h 0,00 h 18 W/m 12,6 km/h (3 Bft)
11.02.2015 18:00 3,7 C 0,5 C 84 % 1022,9 hPa 0,0 l/m 0,00 h 0,00 h 0 W/m 6,3 km/h (2 Bft)
11.02.2015 19:00 2,6 C -0,5 C 86 % 1022,8 hPa 0,0 l/m 0,00 h 0,00 h 0 W/m 6,4 km/h (2 Bft)
11.02.2015 20:00 2,0 C 0,1 C 89 % 1022,6 hPa 0,0 l/m 0,00 h 0,00 h 0 W/m 13,5 km/h (3 Bft)
11.02.2015 21:00 1,7 C -0,2 C 91 % 1022,5 hPa 0,0 l/m 0,00 h 0,00 h 0 W/m 11,9 km/h (2 Bft)
11.02.2015 22:00 1,1 C -0,6 C 92 % 1022,5 hPa 0,0 l/m 0,00 h 0,00 h 0 W/m 11,0 km/h (2 Bft)
11.02.2015 23:00 0,8 C -0,6 C 93 % 1022,2 hPa 0,0 l/m 0,00 h 0,00 h 0 W/m 17,3 km/h (3 Bft)
12.02.2015 00:00 0,8 C -0,6 C 94 % 1022,1 hPa 0,0 l/m 0,00 h 0,00 h 0 W/m 18,2 km/h (3 Bft)
12.02.2015 01:00 0,7 C -0,6 C 94 % 1022,1 hPa 0,0 l/m 0,00 h 0,00 h 0 W/m 19,3 km/h (3 Bft)
12.02.2015 02:00 0,6 C -0,6 C 94 % 1022,1 hPa 0,0 l/m 0,00 h 0,00 h 0 W/m 18,2 km/h (3 Bft)
12.02.2015 03:00 0,5 C -0,8 C 95 % 1021,9 hPa 0,0 l/m 0,00 h 0,00 h 0 W/m 17,3 km/h (3 Bft)
12.02.2015 04:00 0,4 C -1,1 C 95 % 1021,6 hPa 0,0 l/m 0,00 h 0,00 h 0 W/m 14,4 km/h (3 Bft)
12.02.2015 05:00 0,2 C -1,5 C 95 % 1021,4 hPa 0,2 l/m 0,00 h 0,00 h 0 W/m 11,4 km/h (2 Bft)
12.02.2015 06:00 0,1 C -1,7 C 95 % 1021,2 hPa 0,0 l/m 0,00 h 0,00 h 0 W/m 10,9 km/h (2 Bft)
12.02.2015 07:00 0,1 C -1,7 C 96 % 1021,5 hPa 0,0 l/m 0,00 h 0,00 h 6 W/m 9,5 km/h (2 Bft)
12.02.2015 08:00 0,1 C -1,3 C 96 % 1021,6 hPa 0,0 l/m 0,50 h 0,00 h 39 W/m 9,2 km/h (2 Bft)
12.02.2015 09:00 0,8 C -0,1 C 96 % 1021,8 hPa 0,0 l/m 1,00 h 0,00 h 150 W/m 12,2 km/h (2 Bft)
12.02.2015 10:00 2,7 C 1,6 C 96 % 1021,9 hPa 0,0 l/m 0,97 h 0,00 h 255 W/m 17,1 km/h (3 Bft)
12.02.2015 11:00 4,6 C 3,2 C 89 % 1021,7 hPa 0,0 l/m 1,00 h 0,00 h 353 W/m 20,1 km/h (4 Bft)
12.02.2015 12:00 6,2 C 4,5 C 82 % 1021,3 hPa 0,0 l/m 1,00 h 0,00 h 395 W/m 18,7 km/h (3 Bft)
12.02.2015 13:00 7,4 C 5,4 C 79 % 1020,8 hPa 0,0 l/m 1,00 h 0,00 h 371 W/m 18,7 km/h (3 Bft)
12.02.2015 14:00 7,8 C 5,9 C 77 % 1020,6 hPa 0,0 l/m 1,00 h 0,00 h 316 W/m 17,4 km/h (3 Bft)
12.02.2015 15:00 8,2 C 5,8 C 75 % 1020,0 hPa 0,0 l/m 1,00 h 0,00 h 211 W/m 17,1 km/h (3 Bft)
12.02.2015 16:00 7,4 C 4,8 C 77 % 1019,6 hPa 0,0 l/m 0,53 h 0,00 h 83 W/m 13,7 km/h (3 Bft)
12.02.2015 17:00 6,0 C 3,1 C 80 % 1019,6 hPa 0,0 l/m 0,20 h 0,00 h 17 W/m 10,8 km/h (2 Bft)
12.02.2015 18:00 4,7 C 1,7 C 83 % 1019,8 hPa 0,0 l/m 0,00 h 0,00 h 0 W/m 11,1 km/h (2 Bft)
12.02.2015 19:00 3,7 C 1,4 C 86 % 1019,7 hPa 0,0 l/m 0,00 h 0,00 h 0 W/m 14,1 km/h (3 Bft)
12.02.2015 20:00 2,9 C 0,9 C 88 % 1019,7 hPa 0,0 l/m 0,00 h 0,00 h 0 W/m 14,1 km/h (3 Bft)
12.02.2015 21:00 2,3 C 0,6 C 90 % 1019,8 hPa 0,0 l/m 0,00 h 0,00 h 0 W/m 15,5 km/h (3 Bft)
12.02.2015 22:00 1,7 C 0,0 C 91 % 1019,5 hPa 0,0 l/m 0,00 h 0,00 h 0 W/m 17,1 km/h (3 Bft)
12.02.2015 23:00 1,2 C -0,4 C 92 % 1019,3 hPa 0,0 l/m 0,00 h 0,00 h 0 W/m 18,0 km/h (3 Bft)
13.02.2015 00:00 0,8 C -0,6 C 93 % 1019,2 hPa 0,0 l/m 0,00 h 0,00 h 0 W/m 18,9 km/h (3 Bft)
13.02.2015 01:00 0,5 C -0,8 C 94 % 1018,9 hPa 0,0 l/m 0,00 h 0,00 h 0 W/m 19,2 km/h (3 Bft)
13.02.2015 02:00 0,3 C -1,1 C 94 % 1018,6 hPa 0,0 l/m 0,00 h 0,00 h 0 W/m 18,2 km/h (3 Bft)
13.02.2015 03:00 0,1 C -1,1 C 95 % 1018,1 hPa 0,0 l/m 0,00 h 0,00 h 0 W/m 18,0 km/h (3 Bft)
13.02.2015 04:00 -0,0 C -1,4 C 95 % 1017,7 hPa 0,0 l/m 0,00 h 0,00 h 0 W/m 17,3 km/h (3 Bft)
13.02.2015 05:00 -0,1 C -1,7 C 95 % 1017,3 hPa 0,0 l/m 0,00 h 0,00 h 0 W/m 18,5 km/h (3 Bft)
13.02.2015 06:00 -0,1 C -1,7 C 96 % 1017,0 hPa 0,0 l/m 0,00 h 0,00 h 0 W/m 19,1 km/h (3 Bft)
13.02.2015 07:00 -0,2 C -1,7 C 96 % 1016,7 hPa 0,0 l/m 0,00 h 0,00 h 6 W/m 18,4 km/h (3 Bft)
13.02.2015 08:00 -0,1 C -1,2 C 96 % 1016,5 hPa 0,0 l/m 0,40 h 0,00 h 40 W/m 19,6 km/h (3 Bft)
13.02.2015 09:00 0,6 C -0,1 C 96 % 1016,3 hPa 0,2 l/m 1,00 h 0,00 h 152 W/m 24,4 km/h (4 Bft)
13.02.2015 10:00 2,3 C 1,2 C 94 % 1015,7 hPa 0,0 l/m 1,00 h 0,00 h 274 W/m 27,6 km/h (4 Bft)
13.02.2015 11:00 4,3 C 3,1 C 87 % 1015,2 hPa 0,0 l/m 1,00 h 0,00 h 357 W/m 26,4 km/h (4 Bft)
13.02.2015 12:00 6,2 C 4,6 C 80 % 1014,5 hPa 0,0 l/m 1,00 h 0,00 h 390 W/m 25,0 km/h (4 Bft)
13.02.2015 13:00 7,5 C 5,8 C 76 % 1013,5 hPa 0,0 l/m 1,00 h 0,00 h 383 W/m 26,8 km/h (4 Bft)
13.02.2015 14:00 8,5 C 6,8 C 74 % 1012,6 hPa 0,0 l/m 1,00 h 0,00 h 324 W/m 24,1 km/h (4 Bft)
13.02.2015 15:00 9,3 C 7,1 C 71 % 1011,9 hPa 0,0 l/m 1,00 h 0,00 h 214 W/m 23,7 km/h (4 Bft)
13.02.2015 16:00 8,6 C 6,3 C 73 % 1011,4 hPa 0,0 l/m 0,50 h 0,00 h 85 W/m 29,4 km/h (5 Bft)
13.02.2015 17:00 7,3 C 5,0 C 77 % 1010,9 hPa 0,0 l/m 0,13 h 0,00 h 17 W/m 22,2 km/h (4 Bft)
13.02.2015 18:00 6,3 C 4,0 C 81 % 1010,9 hPa 0,0 l/m 0,00 h 0,00 h 0 W/m 19,2 km/h (3 Bft)
13.02.2015 19:00 5,5 C 3,4 C 83 % 1010,8 hPa 0,0 l/m 0,00 h 0,00 h 0 W/m 23,9 km/h (4 Bft)
13.02.2015 20:00 4,7 C 2,5 C 84 % 1010,5 hPa 0,0 l/m 0,00 h 0,00 h 0 W/m 22,5 km/h (4 Bft)
13.02.2015 21:00 3,9 C 2,0 C 86 % 1010,2 hPa 0,0 l/m 0,00 h 0,00 h 0 W/m 25,6 km/h (4 Bft)
13.02.2015 22:00 3,4 C 1,7 C 87 % 1009,7 hPa 0,0 l/m 0,00 h 0,00 h 0 W/m 24,4 km/h (4 Bft)
13.02.2015 23:00 2,9 C 1,2 C 87 % 1009,2 hPa 0,0 l/m 0,00 h 0,00 h 0 W/m 25,7 km/h (4 Bft)
14.02.2015 00:00 2,6 C 1,1 C 87 % 1008,8 hPa 0,0 l/m 0,00 h 0,00 h 0 W/m 25,4 km/h (4 Bft)
14.02.2015 01:00 2,7 C 1,5 C 87 % 1008,4 hPa 0,0 l/m 0,00 h 0,00 h 0 W/m 22,5 km/h (4 Bft)
14.02.2015 02:00 2,9 C 1,3 C 87 % 1008,2 hPa 0,0 l/m 0,00 h 0,00 h 0 W/m 22,2 km/h (4 Bft)
14.02.2015 03:00 3,0 C 1,8 C 88 % 1007,8 hPa 0,0 l/m 0,00 h 0,00 h 0 W/m 21,8 km/h (4 Bft)
14.02.2015 04:00 3,3 C 2,2 C 87 % 1007,4 hPa 0,0 l/m 0,00 h 0,00 h 0 W/m 23,1 km/h (4 Bft)
14.02.2015 05:00 3,4 C 2,2 C 87 % 1007,4 hPa 0,0 l/m 0,00 h 0,00 h 0 W/m 23,4 km/h (4 Bft)
14.02.2015 06:00 3,3 C 2,2 C 87 % 1007,4 hPa 0,0 l/m 0,00 h 0,00 h 0 W/m 22,4 km/h (4 Bft)
14.02.2015 07:00 3,4 C 1,9 C 87 % 1007,6 hPa 0,0 l/m 0,00 h 0,00 h 6 W/m 20,3 km/h (4 Bft)
14.02.2015 08:00 3,4 C 2,0 C 88 % 1007,8 hPa 0,0 l/m 0,03 h 0,00 h 31 W/m 22,5 km/h (4 Bft)
14.02.2015 09:00 4,1 C 3,2 C 87 % 1008,0 hPa 0,0 l/m 0,50 h 0,00 h 114 W/m 21,3 km/h (4 Bft)
14.02.2015 10:00 5,6 C 4,4 C 84 % 1008,1 hPa 0,0 l/m 0,70 h 0,00 h 233 W/m 24,5 km/h (4 Bft)
14.02.2015 11:00 7,7 C 6,1 C 80 % 1008,0 hPa 0,0 l/m 0,63 h 0,00 h 253 W/m 20,8 km/h (4 Bft)
14.02.2015 12:00 8,9 C 7,9 C 78 % 1008,0 hPa 0,0 l/m 0,77 h 0,00 h 353 W/m 19,6 km/h (3 Bft)
14.02.2015 13:00 11,1 C 8,9 C 73 % 1007,6 hPa 0,0 l/m 1,00 h 0,00 h 420 W/m 18,9 km/h (3 Bft)
14.02.2015 14:00 11,9 C 9,6 C 69 % 1007,4 hPa 0,0 l/m 0,90 h 0,00 h 336 W/m 19,7 km/h (3 Bft)
14.02.2015 15:00 11,9 C 9,9 C 68 % 1007,5 hPa 0,0 l/m 0,80 h 0,00 h 231 W/m 21,0 km/h (4 Bft)
14.02.2015 16:00 10,5 C 7,9 C 71 % 1007,3 hPa 0,0 l/m 0,50 h 0,00 h 86 W/m 22,6 km/h (4 Bft)
14.02.2015 17:00 9,0 C 6,0 C 74 % 1007,3 hPa 0,0 l/m 0,00 h 0,00 h 11 W/m 16,0 km/h (3 Bft)
14.02.2015 18:00 7,9 C 5,3 C 77 % 1007,8 hPa 0,0 l/m 0,00 h 0,00 h 0 W/m 15,7 km/h (3 Bft)
14.02.2015 19:00 7,0 C 4,0 C 80 % 1008,2 hPa 0,0 l/m 0,00 h 0,00 h 0 W/m 11,7 km/h (2 Bft)
14.02.2015 20:00 6,1 C 2,7 C 82 % 1008,5 hPa 0,0 l/m 0,00 h 0,00 h 0 W/m 10,0 km/h (2 Bft)
14.02.2015 21:00 5,6 C 3,1 C 84 % 1009,1 hPa 0,0 l/m 0,00 h 0,00 h 0 W/m 13,6 km/h (3 Bft)
14.02.2015 22:00 5,2 C 2,6 C 84 % 1009,4 hPa 0,0 l/m 0,00 h 0,00 h 0 W/m 11,4 km/h (2 Bft)
14.02.2015 23:00 4,6 C 1,9 C 85 % 1009,7 hPa 0,0 l/m 0,00 h 0,00 h 0 W/m 9,0 km/h (2 Bft)
15.02.2015 00:00 3,6 C 0,8 C 86 % 1010,0 hPa 0,0 l/m 0,00 h 0,00 h 0 W/m 5,2 km/h (1 Bft)
15.02.2015 01:00 3,5 C 2,0 C 89 % 1009,9 hPa 0,0 l/m 0,00 h 0,00 h 0 W/m 12,0 km/h (2 Bft)
15.02.2015 02:00 3,9 C 2,1 C 88 % 1009,9 hPa 0,0 l/m 0,00 h 0,00 h 0 W/m 13,0 km/h (3 Bft)
15.02.2015 03:00 3,9 C 2,1 C 87 % 1010,2 hPa 0,0 l/m 0,00 h 0,00 h 0 W/m 10,4 km/h (2 Bft)
15.02.2015 04:00 3,4 C 1,1 C 86 % 1010,3 hPa 0,0 l/m 0,00 h 0,00 h 0 W/m 9,4 km/h (2 Bft)
15.02.2015 05:00 2,9 C 1,0 C 86 % 1010,6 hPa 0,0 l/m 0,00 h 0,00 h 0 W/m 8,5 km/h (2 Bft)
15.02.2015 06:00 2,6 C 0,0 C 86 % 1010,9 hPa 0,0 l/m 0,00 h 0,00 h 0 W/m 5,1 km/h (1 Bft)
15.02.2015 07:00 1,3 C -1,7 C 86 % 1011,2 hPa 0,0 l/m 0,00 h 0,00 h 8 W/m 3,5 km/h (1 Bft)
15.02.2015 08:00 0,3 C -1,9 C 88 % 1012,1 hPa 0,0 l/m 0,87 h 0,00 h 53 W/m 3,6 km/h (1 Bft)
15.02.2015 09:00 1,0 C 0,2 C 92 % 1012,3 hPa 0,0 l/m 1,00 h 0,00 h 184 W/m 8,5 km/h (2 Bft)
15.02.2015 10:00 4,3 C 2,5 C 88 % 1012,7 hPa 0,0 l/m 1,00 h 0,00 h 315 W/m 5,8 km/h (2 Bft)
15.02.2015 11:00 6,6 C 4,3 C 77 % 1013,1 hPa 0,0 l/m 1,00 h 0,00 h 397 W/m 6,5 km/h (2 Bft)
15.02.2015 12:00 7,7 C 5,8 C 75 % 1013,2 hPa 0,0 l/m 0,97 h 0,00 h 429 W/m 11,3 km/h (2 Bft)
15.02.2015 13:00 9,1 C 7,0 C 72 % 1013,0 hPa 0,0 l/m 1,00 h 0,00 h 414 W/m 13,9 km/h (3 Bft)
15.02.2015 14:00 9,7 C 7,6 C 67 % 1012,9 hPa 0,0 l/m 1,00 h 0,00 h 348 W/m 16,1 km/h (3 Bft)
15.02.2015 15:00 9,7 C 7,5 C 65 % 1013,1 hPa 0,0 l/m 1,00 h 0,00 h 229 W/m 14,8 km/h (3 Bft)
15.02.2015 16:00 8,7 C 6,4 C 69 % 1013,1 hPa 0,0 l/m 0,57 h 0,00 h 94 W/m 16,0 km/h (3 Bft)
15.02.2015 17:00 7,2 C 4,6 C 74 % 1013,4 hPa 0,0 l/m 0,17 h 0,00 h 20 W/m 12,3 km/h (3 Bft)
15.02.2015 18:00 5,6 C 2,6 C 79 % 1014,2 hPa 0,0 l/m 0,00 h 0,00 h 0 W/m 8,4 km/h (2 Bft)
15.02.2015 19:00 4,2 C 1,9 C 83 % 1014,8 hPa 0,0 l/m 0,00 h 0,00 h 0 W/m 8,9 km/h (2 Bft)
15.02.2015 20:00 3,2 C 0,5 C 85 % 1015,1 hPa 0,0 l/m 0,00 h 0,00 h 0 W/m 5,9 km/h (2 Bft)
15.02.2015 21:00 1,8 C -1,3 C 85 % 1015,4 hPa 0,0 l/m 0,00 h 0,00 h 0 W/m 3,8 km/h (1 Bft)
15.02.2015 22:00 0,6 C -2,0 C 86 % 1015,7 hPa 0,0 l/m 0,00 h 0,00 h 0 W/m 2,2 km/h (1 Bft)
15.02.2015 23:00 -0,2 C -2,6 C 88 % 1015,8 hPa 0,0 l/m 0,00 h 0,00 h 0 W/m 2,2 km/h (1 Bft)
Min-Datum _ 15.02.15 15.02.15 15.02.15 14.02.15 - - - - 15.02.15
_ Min-Zeit 23:54 23:18 14:46 05:46 - - - - 22:04
Minimum _ -0,6 C -2,8 C 65 % 1007,2 hPa - - - - 0,0 km/h (0 Bft)
Max-Datum _ 14.02.15 14.02.15 10.02.15 10.02.15 09.02.15 10.02.15 09.02.15 14.02.15 13.02.15
_ Max-Zeit 15:16 15:12 02:08 11:24 18:12 11:48 00:24 12:26 16:42
Maximum _ 12,3 C 11,1 C 98 % 1031,8 hPa 0,2 l/m 0,03 h 0,03 h 501 W/m 50,2 km/h
S-SO (7 Bft)
Durchschnitt _ 4,3 C 2,7 C 88 % 1020,2 hPa #1,4 l/m #32:56 h #3:44 h 150 W/m 14,5 km/h (3 Bft)
© 2015 W. Hausmann